Location: Newark
(33.6439°N, 114.9881°W)
Time: 18:23:55
(UTC+00:00)

A-11 Canister half - Pass Details

Date: 27 August 2019
Orbit: 1527 x 1682 km, 47.3° (Epoch: 17 October)

Event Time Altitude Azimuth Distance (km) Brightness Sun altitude
Rises 01:24:46 0° 304° (NW) 4,935 12.9 9.1°
Reaches altitude 10° 01:27:59 10° 301° (WNW) 3,946 12.6 8.5°
Maximum altitude 01:37:54 61° 225° (SW) 1,854 9.9 6.4°
Drops below altitude 10° 01:47:38 10° 148° (SSE) 3,871 10.7 4.4°
Sets 01:50:46 0° 144° (SE) 4,837 11.2 3.8°
